Overview Statistics Trail Chart Weather Telemetry Raw packets
 

This is the latest recevied weather packets stored in our database for station/object N5ZP. If no packets are shown the sender has not sent any weather packets the latest 10 day(s).

<< 5 6 7 8 9 10 11 >>
Time Temp. Humidity Pressure Rain* Wind** Luminosity Snow
1788567386 35.56° C 42% 1008.2 hPa 0 mm - 28 W/m² -
1788567086 35.56° C 41% 1008.1 hPa 0 mm - 33 W/m² -
1788566781 35.56° C 40% 1008.2 hPa 0 mm - 39 W/m² -
1788566477 35.56° C 40% 1008 hPa 0 mm - 44 W/m² -
1788566177 36.11° C 40% 1007.9 hPa 0 mm - 49 W/m² -
1788565876 36.11° C 40% 1008 hPa 0 mm - 52 W/m² -
1788565571 36.11° C 40% 1007.8 hPa 0 mm - 56 W/m² -
1788565267 36.11° C 40% 1007.9 hPa 0 mm - 61 W/m² -
1788564962 36.11° C 40% 1007.9 hPa 0 mm - 65 W/m² -
1788564658 36.11° C 40% 1008 hPa 0 mm - 73 W/m² -
1788564354 36.67° C 40% 1008.1 hPa 0 mm - 74 W/m² -
1788564051 36.67° C 40% 1008.1 hPa 0 mm - 85 W/m² -
1788563746 36.67° C 40% 1007.9 hPa 0 mm - 90 W/m² -
1788563441 36.67° C 40% 1008.1 hPa 0 mm - 97 W/m² -
1788563140 36.67° C 41% 1008 hPa 0 mm - 110 W/m² -
1788562836 36.67° C 41% 1008.1 hPa 0 mm - 126 W/m² -
1788562533 36.67° C 41% 1008.1 hPa 0 mm - 139 W/m² -
1788562233 37.22° C 41% 1008.1 hPa 0 mm - 155 W/m² -
1788561928 36.67° C 41% 1008.2 hPa 0 mm - 155 W/m² -
1788561628 36.67° C 41% 1008.3 hPa 0 mm - 193 W/m² -
1788561327 37.22° C 41% 1008.2 hPa 0 mm - 198 W/m² -
1788561023 37.22° C 40% 1008.4 hPa 0 mm - 218 W/m² -
1788560718 37.22° C 40% 1008.2 hPa 0 mm - 232 W/m² -
1788560414 37.78° C 40% 1008.5 hPa 0 mm - 246 W/m² -
1788560108 37.78° C 39% 1008.4 hPa 0 mm - 258 W/m² -

* Rain latest hour (hover to see other rain measurements)
** Current wind speed in m/s (hover to see current wind gust speed)